Austin Bergstrom, TX

5:21 PM CDT on May 20, 2018 (GMT -0500)
Austin Bergstrom International

Weather History for KAUS - July, 2013

Change the Weather History Date:

Thursday, July 4, 2013

  Actual Average Record
Temperature  
Mean Temperature 80 °F 83 °F  
Max Temperature 96 °F 94 °F 103 °F (2009)
Min Temperature 63 °F 71 °F 63 °F (2013)
Degree Days  
Heating Degree Days 0 0  
Month to date heating degree days 0 0  
Since 1 June heating degree days 0 0  
Since 1 July heating degree days 0 0  
Cooling Degree Days 15 18  
Month to date cooling degree days 56 72  
Year to date cooling degree days 1139 1060  
Since 1 June cooling degree days 625 553  
Growing Degree Days 30 (Base 50)    
Moisture  
Dew Point 59 °F    
Average Humidity 56    
Maximum Humidity 87    
Minimum Humidity 24    
Precipitation  
Precipitation 0.00 in 0.10 in 1.13 in (1972)
Month to date precipitation 0.00 0.42  
Year to date precipitation 16.13 18.66  
Snow  
Snow 0.00 in - - ()
Month to date snowfall 0.0  
Since 1 June snowfall 0.0  
Since 1 July snowfall 0.0  
Snow Depth 0.00 in    
Sea Level Pressure  
Sea Level Pressure 29.93 in    
Wind  
Wind Speed 4 mph (SE)    
Max Wind Speed 14 mph    
Max Gust Speed 18 mph    
Visibility 10 miles    
Events      
T = Trace of Precipitation, MM = Missing Value Source: NWS Daily Summary

Daily Weather History Graph

Daily Weather History Graph

Search for Another Location

Airport or City:

Astronomy

Jul. 04, 2013 Rise Set
Actual Time 6:34 AM CDT 8:36 PM CDT
Civil Twilight 6:06 AM CDT 9:03 PM CDT
Nautical Twilight 5:33 AM CDT 9:36 PM CDT
Astronomical Twilight 4:58 AM CDT 10:12 PM CDT
Moon 3:46 AM CDT (7/4) 5:46 PM CDT (7/4)
Length of Visible Light 14h 56m
Length of Day
14h 02m
Waning Crescent, 11% of the Moon is Illuminated
Jul 4
Waning Crescent
Jul 8
New
Jul 15
First Quarter
Jul 22
Full
Jul 29
Last Quarter

Hourly Weather History & Observations

Time (CDT) Temp. Heat Index Dew Point Humidity Pressure Visibility Wind Dir Wind Speed Gust Speed Precip Events Conditions
12:53 AM 73.9 °F - 61.0 °F 64% 29.94 in 10.0 mi South 5.8 mph - N/A   Clear
1:53 AM 72.0 °F - 61.0 °F 68% 29.96 in 10.0 mi Calm Calm - N/A   Partly Cloudy
2:53 AM 68.0 °F - 61.0 °F 78% 29.95 in 10.0 mi Calm Calm - N/A   Partly Cloudy
3:53 AM 66.9 °F - 61.0 °F 81% 29.95 in 10.0 mi Calm Calm - N/A   Partly Cloudy
4:53 AM 64.9 °F - 61.0 °F 87% 29.95 in 10.0 mi Calm Calm - N/A   Partly Cloudy
5:53 AM 64.0 °F - 61.0 °F 90% 29.95 in 10.0 mi Calm Calm - N/A   Partly Cloudy
6:53 AM 64.0 °F - 61.0 °F 90% 29.96 in 10.0 mi Calm Calm - N/A   Partly Cloudy
7:53 AM 71.1 °F - 64.0 °F 78% 29.97 in 10.0 mi Calm Calm - N/A   Scattered Clouds
8:53 AM 77.0 °F - 66.9 °F 71% 29.98 in 10.0 mi Calm Calm - N/A   Mostly Cloudy
9:53 AM 82.0 °F 83.4 °F 64.0 °F 54% 29.98 in 10.0 mi SSW 6.9 mph - N/A   Mostly Cloudy
10:53 AM 82.9 °F 84.4 °F 64.0 °F 53% 29.98 in 10.0 mi South 3.5 mph - N/A   Mostly Cloudy
11:53 AM 87.1 °F 86.7 °F 60.1 °F 40% 29.96 in 10.0 mi Variable 4.6 mph - N/A   Mostly Cloudy
12:53 PM 91.0 °F 90.0 °F 57.9 °F 33% 29.94 in 10.0 mi Calm Calm - N/A   Mostly Cloudy
1:53 PM 93.0 °F 91.7 °F 57.0 °F 30% 29.93 in 10.0 mi Variable 6.9 mph - N/A   Mostly Cloudy
2:53 PM 93.0 °F 91.7 °F 57.0 °F 30% 29.91 in 10.0 mi SE 8.1 mph - N/A   Mostly Cloudy
3:53 PM 91.9 °F 89.5 °F 54.0 °F 27% 29.89 in 10.0 mi SSE 4.6 mph - N/A   Mostly Cloudy
4:53 PM 93.9 °F - 52.0 °F 24% 29.88 in 10.0 mi ENE 4.6 mph - N/A   Mostly Cloudy
5:53 PM 95.0 °F 92.5 °F 53.1 °F 24% 29.86 in 10.0 mi Variable 5.8 mph - N/A   Scattered Clouds
6:53 PM 93.0 °F 90.6 °F 53.1 °F 26% 29.85 in 10.0 mi Calm Calm - N/A   Scattered Clouds
7:53 PM 91.9 °F 90.0 °F 55.0 °F 29% 29.86 in 10.0 mi NE 5.8 mph - N/A   Scattered Clouds
8:53 PM 84.9 °F 83.9 °F 57.0 °F 38% 29.87 in 10.0 mi ENE 3.5 mph - N/A   Partly Cloudy
9:53 PM 75.9 °F - 61.0 °F 60% 29.89 in 10.0 mi SSE 4.6 mph - N/A   Clear
10:53 PM 84.0 °F 84.4 °F 61.0 °F 46% 29.91 in 10.0 mi SE 11.5 mph - N/A   Partly Cloudy
11:53 PM 81.0 °F 82.2 °F 63.0 °F 54% 29.93 in 10.0 mi SSE 11.5 mph - N/A   Scattered Clouds